Regional Weather Roundup
Issued by NWS Goodland, KS

Home | Current Version | Previous Version | Graphics & Text | Print | Product List | Glossary On
Versions: 1 2 3 4 5 6 7 8 9 10 11 12 13 14 15 16 17 18 19 20 21 22 23 24 25 26 27 28 29 30 31 32 33 34 35 36 37 38 39 40 41 42 43 44 45 46 47 48 49 50
606
ASUS43 KGLD 250159
RWRGLD

GOODLAND FORECAST AREA HOURLY WEATHER ROUNDUP
NATIONAL WEATHER SERVICE GOODLAND KS
700 PM MST SAT FEB 24 2018

...OFFICIAL OBSERVATIONS...

CITY           SKY/WX    TMP DP  RH WIND       PRES   REMARKS
GOODLAND KS    CLEAR     24  12  60 N9        29.85R
HILL CITY KS   CLEAR     32  13  45 NW10      29.88R
IMPERIAL NEB   CLEAR     28  13  53 NW8       29.84R
MCCOOK NEB     CLEAR     29  19  66 NW10      29.86R WCI  20
AKRON CO       PTCLDY    23   8  52 N10       29.80R WCI  12
BURLINGTON CO  CLEAR     27  10  49 N8        29.84R
LIMON CO       CLEAR     17   7  64 NE7       29.81R
$$

...UNOFFICIAL OBSERVATIONS...

CITY           SKY/WX    TMP DP  RH WIND       PRES   REMARKS
NORTON KS      CLEAR     34  12  40 NW17G23   29.85
SHARON SPRINGS   N/A     25   5  42 CALM        N/A
KIT CARSON CO    N/A     25  14  61 MISG        N/A
$$




USA.gov is the U.S. government's official web portal to all federal, state and local government web resources and services.